TimeMST,TemperatureF,Dew PointF,Humidity,Sea Level PressureIn,VisibilityMPH,Wind Direction,Wind SpeedMPH,Gust SpeedMPH,PrecipitationIn,Events,Conditions,WindDirDegrees,DateUTC
12:58 AM,42.6,19.2,39,29.58,10.0,NNE,3.5,-,N/A,,Clear,20,2013-03-04 07:58:00
1:55 AM,46.4,19.4,34,29.71,10.0,Variable,2.3,-,N/A,,Clear,0,2013-03-04 08:55:00
4:55 AM,42.1,21.6,44,29.49,10.0,NNW,6.9,-,N/A,,Scattered Clouds,340,2013-03-04 11:55:00
5:55 AM,41.5,20.3,43,29.53,10.0,West,6.9,-,N/A,,Partly Cloudy,270,2013-03-04 12:55:00
6:55 AM,31.8,24.8,75,29.68,10.0,North,20.7,28.8,N/A,,Mostly Cloudy,350,2013-03-04 13:55:00
7:22 AM,30.2,24.8,80,29.72,10.0,North,21.9,29.9,N/A,,Mostly Cloudy,350,2013-03-04 14:22:00
7:55 AM,29.7,24.6,81,29.72,10.0,North,17.3,-,N/A,,Overcast,10,2013-03-04 14:55:00
8:09 AM,30.2,23.0,75,29.71,10.0,North,18.4,-,N/A,,Mostly Cloudy,360,2013-03-04 15:09:00
8:55 AM,31.3,22.6,70,29.71,10.0,North,13.8,-,N/A,,Scattered Clouds,10,2013-03-04 15:55:00
9:55 AM,33.3,20.7,60,29.71,10.0,NNW,12.7,-,N/A,,Scattered Clouds,340,2013-03-04 16:55:00
10:55 AM,33.8,23.0,65,29.77,10.0,NNW,8.1,-,N/A,,Partly Cloudy,340,2013-03-04 17:55:00
11:58 AM,38.7,23.9,55,29.71,10.0,NNW,11.5,-,N/A,,Scattered Clouds,340,2013-03-04 18:58:00
11:59 AM,39.2,23.0,52,29.77,10.0,NNW,11.5,-,N/A,Rain,Light Rain,330,2013-03-04 18:59:00
12:08 PM,37.4,23.0,56,29.77,10.0,NNW,13.8,-,N/A,,Mostly Cloudy,330,2013-03-04 19:08:00
12:23 PM,35.6,23.0,60,29.77,10.0,NNW,13.8,-,N/A,,Overcast,330,2013-03-04 19:23:00
12:58 PM,33.3,25.0,72,29.76,10.0,North,5.8,-,0.00,Snow,Light Snow,360,2013-03-04 19:58:00
1:03 PM,32.0,24.8,75,29.76,10.0,North,6.9,-,N/A,Snow,Light Snow,360,2013-03-04 20:03:00
1:08 PM,32.0,26.6,80,29.76,10.0,North,6.9,-,N/A,Snow,Light Snow,10,2013-03-04 20:08:00
1:42 PM,32.0,26.6,80,29.79,3.0,NNE,19.6,28.8,N/A,Snow,Light Snow,30,2013-03-04 20:42:00
1:48 PM,30.2,24.8,80,29.82,6.0,North,17.3,-,N/A,,Overcast,360,2013-03-04 20:48:00
1:54 PM,30.2,24.8,80,29.82,6.0,North,18.4,-,N/A,,Overcast,10,2013-03-04 20:54:00
1:58 PM,29.5,24.4,81,29.80,6.0,North,18.4,-,0.00,,Overcast,360,2013-03-04 20:58:00
2:03 PM,28.4,23.0,80,29.84,6.0,North,20.7,26.5,N/A,Snow,Light Snow,350,2013-03-04 21:03:00
2:18 PM,26.6,21.2,80,29.85,3.0,North,18.4,26.5,N/A,Snow,Light Snow,350,2013-03-04 21:18:00
2:23 PM,26.6,21.2,80,29.86,2.0,North,19.6,26.5,N/A,Snow,Light Snow,350,2013-03-04 21:23:00
2:28 PM,26.6,21.2,80,29.87,1.5,North,23.0,26.5,N/A,Snow,Light Snow,360,2013-03-04 21:28:00
2:38 PM,24.8,21.2,86,29.87,1.0,North,16.1,-,N/A,Snow,Light Snow,350,2013-03-04 21:38:00
2:58 PM,25.0,21.7,87,29.94,0.5,North,17.3,27.6,0.03,Fog-Snow,Light Freezing Fog,350,2013-03-04 21:58:00
3:03 PM,24.8,21.2,86,29.88,0.5,North,18.4,-,N/A,Fog-Snow,Light Freezing Fog,360,2013-03-04 22:03:00
3:09 PM,24.8,21.2,86,29.90,0.5,North,15.0,23.0,N/A,Fog,Light Freezing Fog,350,2013-03-04 22:09:00
3:23 PM,24.8,21.2,86,29.93,0.8,North,19.6,25.3,N/A,Snow,Light Snow,350,2013-03-04 22:23:00
3:38 PM,24.8,21.2,86,29.92,0.5,North,20.7,31.1,N/A,Fog-Snow,Light Freezing Fog,360,2013-03-04 22:38:00
3:43 PM,23.0,21.2,93,29.91,0.2,North,20.7,25.3,N/A,Fog-Snow,Light Freezing Fog,10,2013-03-04 22:43:00
3:48 PM,23.0,21.2,93,29.94,0.5,North,23.0,-,N/A,Fog-Snow,Light Freezing Fog,360,2013-03-04 22:48:00
3:53 PM,23.0,19.4,86,29.94,0.5,North,19.6,-,N/A,Fog-Snow,Light Freezing Fog,360,2013-03-04 22:53:00
3:58 PM,23.0,19.4,86,29.99,0.8,North,15.0,26.5,0.00,Snow,Light Snow,350,2013-03-04 22:58:00
4:03 PM,21.2,17.6,86,29.94,1.5,North,16.1,23.0,N/A,Snow,Light Snow,350,2013-03-04 23:03:00
4:08 PM,21.2,17.6,86,29.96,3.0,NNW,13.8,23.0,N/A,Snow,Light Snow,340,2013-03-04 23:08:00
4:13 PM,21.2,17.6,86,29.96,7.0,NNW,12.7,23.0,N/A,Snow,Light Snow,340,2013-03-04 23:13:00
4:18 PM,21.2,17.6,86,29.97,7.0,NNW,12.7,-,N/A,Snow,Light Snow,340,2013-03-04 23:18:00
4:23 PM,21.2,17.6,86,29.97,7.0,NNW,9.2,-,N/A,Snow,Light Snow,330,2013-03-04 23:23:00
4:38 PM,21.2,17.6,86,29.98,7.0,NNW,12.7,-,N/A,Snow,Light Snow,340,2013-03-04 23:38:00
4:43 PM,21.2,17.6,86,29.98,5.0,NNW,13.8,19.6,N/A,Snow,Light Snow,330,2013-03-04 23:43:00
4:48 PM,21.2,17.6,86,29.99,4.0,NNW,11.5,-,N/A,Snow,Light Snow,340,2013-03-04 23:48:00
4:53 PM,21.2,17.6,86,30.00,3.0,North,12.7,-,N/A,Snow,Light Snow,350,2013-03-04 23:53:00
4:58 PM,21.9,16.7,80,30.06,4.0,NNW,13.8,-,0.00,Snow,Light Snow,340,2013-03-04 23:58:00
5:03 PM,21.2,15.8,80,30.00,8.0,North,13.8,-,N/A,Snow,Light Snow,350,2013-03-05 00:03:00
5:28 PM,21.2,15.8,80,30.01,9.0,North,18.4,-,N/A,Snow,Light Snow,360,2013-03-05 00:28:00
5:58 PM,21.0,15.8,80,30.08,10.0,North,19.6,-,0.00,Snow,Light Snow,10,2013-03-05 00:58:00
6:13 PM,21.2,15.8,80,30.04,10.0,North,18.4,-,N/A,Snow,Light Snow,10,2013-03-05 01:13:00
6:18 PM,21.2,15.8,80,30.04,10.0,North,21.9,-,N/A,Snow,Light Snow,360,2013-03-05 01:18:00
6:23 PM,21.2,15.8,80,30.04,10.0,North,16.1,25.3,N/A,Snow,Light Snow,350,2013-03-05 01:23:00
6:28 PM,21.2,15.8,80,30.04,10.0,North,13.8,-,N/A,Snow,Light Snow,350,2013-03-05 01:28:00
6:43 PM,21.2,15.8,80,30.06,10.0,North,13.8,-,N/A,Snow,Light Snow,350,2013-03-05 01:43:00
6:58 PM,21.6,15.4,77,30.19,10.0,NNW,15.0,20.7,0.00,Snow,Light Snow,340,2013-03-05 01:58:00
7:08 PM,21.2,15.8,80,30.07,10.0,NNW,12.7,-,N/A,Snow,Light Snow,340,2013-03-05 02:08:00
7:18 PM,21.2,15.8,80,30.08,10.0,North,13.8,-,N/A,Snow,Light Snow,350,2013-03-05 02:18:00
7:23 PM,21.2,15.8,80,30.08,10.0,North,15.0,-,N/A,Snow,Light Snow,350,2013-03-05 02:23:00
7:43 PM,19.4,14.0,80,30.09,10.0,NNW,12.7,-,N/A,,Partly Cloudy,340,2013-03-05 02:43:00
7:58 PM,19.9,14.0,78,30.24,10.0,North,15.0,-,0.00,,Partly Cloudy,360,2013-03-05 02:58:00
8:58 PM,17.2,10.9,76,30.27,10.0,North,11.5,-,N/A,,Clear,350,2013-03-05 03:58:00
9:22 PM,14.0,8.6,79,30.13,10.0,North,9.2,-,N/A,,Freezing Rain,10,2013-03-05 04:22:00
9:34 PM,12.2,6.8,79,30.14,10.0,NNE,10.4,-,N/A,,Clear,20,2013-03-05 04:34:00
9:58 PM,12.6,6.6,77,30.32,10.0,West,4.6,-,0.00,,Clear,270,2013-03-05 04:58:00
10:58 PM,15.1,9.0,77,30.17,10.0,NNE,2.3,-,N/A,,Clear,20,2013-03-05 05:58:00
11:38 PM,6.8,3.2,85,30.17,10.0,North,8.1,-,N/A,,Freezing Rain,360,2013-03-05 06:38:00
11:42 PM,6.8,1.4,79,30.17,10.0,North,9.2,-,N/A,,Clear,360,2013-03-05 06:42:00
11:58 PM,5.4,1.6,84,30.34,10.0,North,10.4,-,0.00,,Clear,360,2013-03-05 06:58:00